Regional Weather Roundup
Issued by NWS

Home | Current Version | Previous Version | Graphics & Text | Print | Product List | Glossary On
Versions: 1 2 3 4 5 6 7 8 9 10 11 12 13 14 15 16 17 18 19 20 21 22 23 24 25 26 27
000
ASUS45 KTFX 270010
RWRMT
MONTANA REGIONAL WEATHER ROUNDUP
NATIONAL WEATHER SERVICE GREAT FALLS MT
600 PM MDT SUN MAR 26 2017

NOTE: "FAIR" INDICATES FEW OR NO CLOUDS BELOW 12000 FEET WITH NO
SIGNIFICANT WEATHER AND/OR OBSTRUCTIONS TO VISIBILITY.

MTZ001>007-043-270100-
WEST OF THE DIVIDE

CITY           SKY/WX    TMP DP  RH WIND       PRES   REMARKS
KALISPELL      CLOUDY    50  27  40 S9        29.82F
MISSOULA       CLOUDY    52  26  36 NW8       29.82F
BUTTE          CLOUDY    50  15  24 S15       29.81F
MULLAN PASS    FLURRIES  33  31  92 VRB5      29.79F
ANACONDA         N/A     50  12  22 S12       29.81S
DEER LODGE       N/A     50  21  32 NW9       29.82S
EUREKA           N/A     52  21  30 SW5       29.81F
HAMILTON         N/A     52  25  35 NW9       29.80R
PLAINS           N/A     52  29  41 CALM      29.84
RONAN            N/A     52  31  44 N5        29.89F
$$

MTZ008-052>055-270100-
SOUTHWEST MONTANA

CITY           SKY/WX    TMP DP  RH WIND       PRES   REMARKS
BOZEMAN        CLOUDY    53  20  27 SW14      29.83S
DILLON         CLOUDY    49  20  31 S20G29    29.81F
W YELLOWSTONE  CLOUDY    37  21  52 SW10G17   29.94S WCI  30
ENNIS          SUNNY     46  19  34 S21       29.91S
$$

MTZ009-010-012-014-046-048-049-054-270100-
EAST SLOPES AND CENTRAL MONTANA

CITY           SKY/WX    TMP DP  RH WIND       PRES   REMARKS
CUT BANK       MOSUNNY   49  16  26 W12       29.81F
GREAT FALLS    MOSUNNY   54  16  22 MISG      29.81F
MALMSTROM AFB  SUNNY     54  17  23 W6        29.81F
HELENA         CLOUDY    54  20  26 E9        29.79F
BOWMANS CRNR     N/A     49  17  28 W6G16     29.79F
CHOTEAU          N/A     52  16  24 SW7       29.82F
CONRAD           N/A     53  14  21 W1        29.85F
FAIRFIELD        N/A     52  14  21 SW12      29.80F
POWER            N/A     52  15  23 SW6       29.80F
$$

MTZ011-013-016-021-045-047-050-051-270100-
NORTH CENTRAL MONTANA

CITY           SKY/WX    TMP DP  RH WIND       PRES   REMARKS
HAVRE          SUNNY     55  18  23 W10       29.84F
LEWISTOWN      SUNNY     54  14  20 NW8       29.82S
N BAR RANCH    CLOUDY    50  23  34 SW15      29.85F
CHINOOK          N/A     54  18  24 W8        29.86S
FORT BENTON      N/A     57   5  12 MISG      29.82F
GRASS RANGE    PTSUNNY   54  24  31 NE15      29.79S
WINIFRED         N/A     54  15  20 NW9       29.82F
$$

MTZ017>020-022>027-061-062-270100-
NORTHEAST MONTANA

CITY           SKY/WX    TMP DP  RH WIND       PRES   REMARKS
GLASGOW        SUNNY     55  21  26 W9        29.87F
JORDAN           N/A     56  23  27 CALM      29.84F
SIDNEY         MOSUNNY   60  25  26 NW14      29.86R
WOLF POINT     SUNNY     58  24  27 W12       29.88S
MALTA          SUNNY     55  21  26 CALM      29.85S
PLENTYWOOD       N/A     54  25  32 CALM      29.87R
POPLAR           N/A     57  21  24 W10       29.88R
SCOBEY           N/A     54  20  26 W9        29.87
$$

MTZ028>42-056>058-270100-
SOUTHCENTRAL AND SOUTHEAST MONTANA

CITY           SKY/WX    TMP DP  RH WIND       PRES   REMARKS
BAKER          MOSUNNY   55  29  36 N7        29.88S
BILLINGS       CLOUDY    57  27  31 E7        29.83F
LIVINGSTON     CLOUDY    53  19  26 SW22      29.82F
MILES CITY     SUNNY     59  25  27 SW6       29.85S
EKALAKA          N/A     53  31  43 SE2       29.87
FORSYTH          N/A     59  25  27 CALM      29.85S
LAUREL           N/A     57  26  30 N1        29.84
$$

REGIONAL REPORTS...DAKOTAS

CITY           SKY/WX    TMP DP  RH WIND       PRES   REMARKS
WILLISTON      PTSUNNY   59  27  29 W13       29.85S
MINOT          SUNNY     55  40  56 E14       29.86S
DICKINSON      CLOUDY    56  24  29 N5        29.85S
BEACH            N/A    N/A N/A N/A MISG        N/A
TIOGA          CLOUDY    57  32  38 W6        29.86S
WATFORD CITY     N/A     57  34  41 SW9       29.85R
BISMARCK       SUNNY     57  36  45 E9        29.89F
GRAND FORKS    PTCLDY    46  41  82 S5        29.94R
FARGO          PTCLDY    44  38  79 W3        29.94S
BUFFALO SD       N/A     55  37  50 S12       29.83S
RAPID CITY     CLOUDY    43  39  86 NW7       29.92F
$$

REGIONAL REPORTS...WYOMING/IDAHO/WASHINGTON

CITY           SKY/WX    TMP DP  RH WIND       PRES   REMARKS
GILLETTE       MOSUNNY   53  29  39 NE3       29.88F
SHERIDAN       MOSUNNY   56  22  26 VRB5      29.86S
BUFFALO WY     MOSUNNY   52  28  39 E7        29.89S
CODY           CLOUDY    54  20  26 SE7       29.83F
YELLOWSTONE LA   N/A     34  21  59 VRB7      29.96R WCI  28
IDAHO FALLS    CLOUDY    50  29  44 S12       29.93F
SALMON         CLOUDY    48  28  46 S15G29    29.85R
BOISE          CLOUDY    51  34  52 E6        29.92F
SPOKANE        CLOUDY    44  39  82 SW8       29.83S
$$

REGIONAL REPORTS...ALBERTA

CITY           SKY/WX    TMP DP  RH WIND       PRES   REMARKS
EDMONTON       MOSUNNY   46  30  53 S12       29.80R
CALGARY        PTSUNNY   48  16  27 SE15      29.73F
LETHBRIDGE     CLOUDY    54  12  19 SW12G18   29.78S
MEDICINE HAT   MOSUNNY   54  16  22 SW6       29.81F
WATERTON GATE    N/A     45  16  31 SW12G20     N/A
CARDSTON         N/A     48  16  27 SW7         N/A
MILK RIVER       N/A     54  12  19 W12         N/A
ONEFOUR          N/A     52  16  24 W8          N/A
$$

REGIONAL REPORTS...SASKATCHEWAN

CITY           SKY/WX    TMP DP  RH WIND       PRES   REMARKS
SWIFT CURRENT  MOSUNNY   50  27  40 N12       29.82S
REGINA         PTSUNNY   54  23  30 SW5       29.84R
SASKATOON      CLOUDY    34  30  86 NE9       29.93R WCI  26
VAL MARIE        N/A     52  16  24 W9          N/A
ROCKGLEN         N/A     50  18  27 W8          N/A
ASSINIBOIA       N/A     43  32  65 SE7         N/A
$$




USA.gov is the U.S. government's official web portal to all federal, state and local government web resources and services.